Guymon, OK

9:06 PM CDT on July 24, 2017 (GMT -0500)
Guymon Municipal

Weather History for KGUY - August, 2013

Change the Weather History Date:

Monday, August 26, 2013

  Actual Average Record
Temperature  
Mean Temperature 81 °F 77 °F  
Max Temperature 94 °F 91 °F 104 °F (2011)
Min Temperature 67 °F 63 °F 50 °F (2010)
Degree Days  
Heating Degree Days 0 0  
Month to date heating degree days 0 0  
Since 1 June heating degree days 0 8  
Since 1 July heating degree days 0 0  
Cooling Degree Days 16 12  
Month to date cooling degree days 347 348  
Year to date cooling degree days 1460 1190  
Since 1 June cooling degree days 1256 1082  
Growing Degree Days 30 (Base 50)    
Moisture  
Dew Point 59 °F    
Average Humidity 52    
Maximum Humidity 76    
Minimum Humidity 28    
Precipitation  
Precipitation 0.00 in 0.09 in 0.46 in (2016)
Month to date precipitation 4.20 2.43  
Year to date precipitation 10.55 14.28  
Snow  
Snow 0.00 in - - ()
Month to date snowfall 0.0  
Since 1 June snowfall T  
Since 1 July snowfall 0.0  
Snow Depth 0.00 in    
Sea Level Pressure  
Sea Level Pressure 30.01 in    
Wind  
Wind Speed 13 mph (South)    
Max Wind Speed 21 mph    
Max Gust Speed 26 mph    
Visibility 10 miles    
Events      
T = Trace of Precipitation, MM = Missing Value Source: NWS Daily Summary

Daily Weather History Graph

Daily Weather History Graph

Search for Another Location

Airport or City:

Trip Planner

Search our weather history database for the weather conditions in past years. The results will help you decide how hot, cold, wet, or windy it might be!

Date:

Astronomy

Aug. 26, 2013 Rise Set
Actual Time 7:12 AM CDT 8:22 PM CDT
Civil Twilight 6:45 AM CDT 8:48 PM CDT
Nautical Twilight 6:13 AM CDT 9:20 PM CDT
Astronomical Twilight 5:40 AM CDT 9:53 PM CDT
Moon 11:45 PM CDT (8/26) 1:05 PM CDT (8/26)
Length of Visible Light 14h 03m
Length of Day
13h 09m
Waning Gibbous, 66% of the Moon is Illuminated
Aug 26
Waning Gibbous
Aug 28
Last Quarter
Sep 5
New
Sep 12
First Quarter
Sep 19
Full

Hourly Weather History & Observations

Time (CDT) Temp. Heat Index Dew Point Humidity Pressure Visibility Wind Dir Wind Speed Gust Speed Precip Events Conditions
12:53 AM 77.0 °F - 59.0 °F 54% 30.03 in 10.0 mi SSE 10.4 mph - N/A   Clear
1:53 AM 75.9 °F - 59.0 °F 56% 30.03 in 10.0 mi South 11.5 mph - N/A   Clear
2:53 AM 75.0 °F - 60.1 °F 60% 30.03 in 10.0 mi South 13.8 mph - N/A   Clear
3:53 AM 73.0 °F - 60.1 °F 64% 30.04 in 10.0 mi South 10.4 mph - N/A   Clear
4:53 AM 71.1 °F - 60.1 °F 68% 30.04 in 10.0 mi South 10.4 mph - N/A   Clear
5:53 AM 70.0 °F - 60.1 °F 71% 30.04 in 10.0 mi South 9.2 mph - N/A   Clear
6:53 AM 68.0 °F - 60.1 °F 76% 30.05 in 10.0 mi South 8.1 mph - N/A   Clear
7:53 AM 69.1 °F - 60.1 °F 73% 30.07 in 10.0 mi South 5.8 mph - N/A   Clear
8:53 AM 75.0 °F - 60.1 °F 60% 30.06 in 10.0 mi SSW 12.7 mph - N/A   Clear
9:53 AM 80.1 °F 81.1 °F 61.0 °F 52% 30.06 in 10.0 mi SSW 17.3 mph - N/A   Clear
10:53 AM 84.0 °F 84.4 °F 61.0 °F 46% 30.05 in 10.0 mi SW 17.3 mph 24.2 mph N/A   Clear
11:53 AM 88.0 °F 87.9 °F 61.0 °F 40% 30.03 in 10.0 mi South 19.6 mph 25.3 mph N/A   Clear
12:53 PM 90.0 °F 90.0 °F 61.0 °F 38% 30.02 in 10.0 mi SSW 16.1 mph 24.2 mph N/A   Clear
1:53 PM 91.9 °F 91.8 °F 61.0 °F 35% 30.00 in 10.0 mi South 15.0 mph 23.0 mph N/A   Clear
2:53 PM 93.0 °F 92.7 °F 60.1 °F 33% 29.98 in 10.0 mi South 19.6 mph 23.0 mph N/A   Clear
3:53 PM 91.9 °F 90.8 °F 57.9 °F 32% 29.97 in 10.0 mi South 11.5 mph 25.3 mph N/A   Clear
4:53 PM 93.0 °F 91.4 °F 55.9 °F 29% 29.96 in 10.0 mi South 12.7 mph 21.9 mph N/A   Partly Cloudy
5:53 PM 91.9 °F 90.6 °F 57.0 °F 31% 29.95 in 10.0 mi South 15.0 mph 20.7 mph N/A   Clear
6:53 PM 90.0 °F 88.1 °F 55.9 °F 31% 29.95 in 10.0 mi South 12.7 mph - N/A   Clear
7:53 PM 87.1 °F 85.3 °F 55.0 °F 33% 29.95 in 10.0 mi South 11.5 mph - N/A   Clear
8:53 PM 82.0 °F 81.6 °F 55.9 °F 41% 29.95 in 10.0 mi South 10.4 mph - N/A   Clear
9:53 PM 79.0 °F - 57.0 °F 47% 29.96 in 10.0 mi SSE 9.2 mph - N/A   Clear
10:53 PM 79.0 °F - 57.9 °F 48% 29.96 in 10.0 mi South 13.8 mph - N/A   Clear
11:53 PM 77.0 °F - 57.9 °F 52% 29.96 in 10.0 mi South 15.0 mph - N/A   Clear